| time (UTC) | temp F | wind direction | speed MPH | gust MPH | rain 1hr in | rain 24hr in | rain mn in | humidity % | barometer mb |
| 20260510215832 | 56 | 315 | 1.0 | 1.0 | 0.00 | 0.13 | 0.13 | 78 | 1013.1 |
| 20260510215335 | 56 | 315 | 1.0 | 2.0 | 0.00 | 0.13 | 0.13 | 78 | 1013.2 |
| 20260510215107 | 56 | 315 | 1.0 | 2.0 | 0.00 | 0.13 | 0.13 | 78 | 1013.3 |
| 20260510214617 | 56 | 315 | 1.0 | 2.0 | 0.00 | 0.13 | 0.13 | 78 | 1013.3 |
| 20260510213833 | 56 | 315 | 0.0 | 2.0 | 0.00 | 0.13 | 0.13 | 78 | 1013.3 |
| 20260510213332 | 56 | 315 | 1.0 | 2.0 | 0.00 | 0.13 | 0.13 | 78 | 1013.4 |
| 20260510212832 | 56 | 315 | 1.0 | 3.0 | 0.00 | 0.13 | 0.13 | 78 | 1013.4 |
| 20260510212333 | 56 | 315 | 1.0 | 3.0 | 0.00 | 0.13 | 0.13 | 78 | 1013.6 |
| 20260510211834 | 56 | 315 | 1.0 | 2.0 | 0.00 | 0.13 | 0.13 | 78 | 1013.5 |
| 20260510211332 | 56 | 315 | 2.0 | 4.0 | 0.00 | 0.13 | 0.13 | 78 | 1013.5 |
| 20260510210828 | 56 | 315 | 2.0 | 4.0 | 0.00 | 0.13 | 0.13 | 78 | 1013.5 |
| 20260510210325 | 56 | 320 | 1.0 | 3.0 | 0.00 | 0.13 | 0.13 | 79 | 1013.5 |
| 20260510210124 | 56 | 259 | 2.0 | 3.0 | 0.00 | 0.13 | 0.13 | 79 | 1013.5 |
| 20260510205327 | 56 | 258 | 2.0 | 3.0 | 0.00 | 0.13 | 0.13 | 79 | 1013.5 |
| 20260510204830 | 56 | 29 | 1.0 | 3.0 | 0.00 | 0.13 | 0.13 | 79 | 1013.5 |
| 20260510204332 | 56 | 29 | 1.0 | 2.0 | 0.00 | 0.13 | 0.13 | 79 | 1013.5 |
| 20260510204102 | 57 | 29 | 0.0 | 2.0 | 0.00 | 0.13 | 0.13 | 79 | 1013.4 |
| 20260510203600 | 57 | 29 | 1.0 | 2.0 | 0.00 | 0.13 | 0.13 | 79 | 1013.4 |
| 20260510202822 | 56 | 29 | 1.0 | 3.0 | 0.00 | 0.13 | 0.13 | 79 | 1013.4 |
| 20260510202325 | 56 | 29 | 1.0 | 3.0 | 0.00 | 0.13 | 0.13 | 79 | 1013.4 |
| 20260510202113 | 56 | 29 | 2.0 | 3.0 | 0.00 | 0.13 | 0.13 | 79 | 1013.4 |
| 20260510201320 | 56 | 29 | 2.0 | 3.0 | 0.00 | 0.13 | 0.13 | 79 | 1013.4 |
| 20260510200817 | 56 | 29 | 1.0 | 3.0 | 0.00 | 0.13 | 0.13 | 79 | 1013.4 |
| 20260510200422 | 56 | 29 | 1.0 | 2.0 | 0.00 | 0.13 | 0.13 | 79 | 1013.4 |
| 20260510200402 | 56 | 29 | 1.0 | 2.0 | 0.00 | 0.13 | 0.13 | 79 | 1013.4 |
| 20260510195315 | 56 | 29 | 1.0 | 2.0 | 0.00 | 0.13 | 0.13 | 79 | 1013.4 |
| 20260510194815 | 56 | 29 | 1.0 | 2.0 | 0.00 | 0.13 | 0.13 | 79 | 1013.3 |
| 20260510194313 | 56 | 29 | 1.0 | 2.0 | 0.00 | 0.13 | 0.13 | 79 | 1013.4 |
| 20260510193810 | 56 | 29 | 1.0 | 2.0 | 0.00 | 0.13 | 0.13 | 79 | 1013.3 |
| 20260510193310 | 56 | 29 | 1.0 | 2.0 | 0.00 | 0.13 | 0.13 | 79 | 1013.3 |
| 20260510192810 | 56 | 29 | 1.0 | 2.0 | 0.00 | 0.13 | 0.13 | 79 | 1013.2 |
| 20260510192309 | 56 | 29 | 1.0 | 2.0 | 0.00 | 0.13 | 0.13 | 79 | 1013.2 |
| 20260510191815 | 56 | 29 | 1.0 | 2.0 | 0.00 | 0.13 | 0.13 | 79 | 1013.2 |
| 20260510191307 | 56 | 29 | 1.0 | 2.0 | 0.00 | 0.13 | 0.13 | 79 | 1013.1 |
| 20260510190807 | 56 | 29 | 1.0 | 2.0 | 0.00 | 0.13 | 0.13 | 78 | 1013.1 |
| 20260510190305 | 56 | 33 | 1.0 | 2.0 | 0.00 | 0.13 | 0.13 | 78 | 1013.1 |
| 20260510185804 | 56 | 34 | 1.0 | 2.0 | 0.00 | 0.13 | 0.13 | 78 | 1013.1 |
| 20260510185306 | 56 | 34 | 1.0 | 2.0 | 0.00 | 0.13 | 0.13 | 78 | 1013.0 |
| 20260510184802 | 56 | 34 | 1.0 | 2.0 | 0.00 | 0.13 | 0.13 | 78 | 1013.1 |
| 20260510184544 | 57 | 34 | 1.0 | 2.0 | 0.00 | 0.13 | 0.13 | 78 | 1013.1 |
| 20260510183802 | 57 | 34 | 1.0 | 2.0 | 0.00 | 0.13 | 0.13 | 78 | 1013.1 |
| 20260510183302 | 57 | 34 | 1.0 | 2.0 | 0.00 | 0.13 | 0.13 | 78 | 1013.1 |
| 20260510182802 | 57 | 34 | 1.0 | 2.0 | 0.00 | 0.13 | 0.13 | 78 | 1013.1 |
| 20260510182624 | 57 | 34 | 1.0 | 3.0 | 0.00 | 0.13 | 0.13 | 78 | 1012.9 |
| 20260510182326 | 57 | 34 | 1.0 | 2.0 | 0.00 | 0.13 | 0.13 | 78 | 1013.0 |
| 20260510181540 | 57 | 34 | 1.0 | 2.0 | 0.00 | 0.13 | 0.13 | 78 | 1013.0 |
| 20260510180745 | 57 | 34 | 1.0 | 2.0 | 0.00 | 0.13 | 0.13 | 77 | 1012.9 |
| 20260510180521 | 57 | 34 | 1.0 | 2.0 | 0.00 | 0.13 | 0.13 | 77 | 1012.9 |
| 20260510175739 | 57 | 34 | 0.0 | 2.0 | 0.00 | 0.13 | 0.13 | 77 | 1012.9 |
| 20260510175414 | 57 | 34 | 1.0 | 2.0 | 0.00 | 0.13 | 0.13 | 77 | 1012.9 |
| 20260510175353 | 57 | 34 | 0.0 | 2.0 | 0.00 | 0.13 | 0.13 | 77 | 1012.8 |
| 20260510175254 | 57 | 34 | 1.0 | 2.0 | 0.00 | 0.13 | 0.13 | 77 | 1012.8 |
| 20260510174411 | 57 | 34 | 1.0 | 2.0 | 0.00 | 0.13 | 0.13 | 77 | 1012.8 |
| 20260510173236 | 57 | 34 | 1.0 | 2.0 | 0.00 | 0.13 | 0.13 | 77 | 1012.8 |
| 20260510172735 | 57 | 34 | 1.0 | 2.0 | 0.00 | 0.13 | 0.13 | 76 | 1012.9 |
| 20260510172236 | 57 | 34 | 1.0 | 2.0 | 0.00 | 0.13 | 0.13 | 76 | 1012.9 |
| 20260510171736 | 57 | 34 | 1.0 | 2.0 | 0.00 | 0.13 | 0.13 | 77 | 1012.9 |
| 20260510171233 | 58 | 34 | 1.0 | 2.0 | 0.00 | 0.13 | 0.13 | 77 | 1012.9 |
| 20260510170733 | 57 | 34 | 1.0 | 2.0 | 0.00 | 0.13 | 0.13 | 76 | 1012.8 |
| 20260510170233 | 58 | 34 | 0.0 | 2.0 | 0.00 | 0.13 | 0.13 | 76 | 1012.8 |
| 20260510170023 | 58 | 34 | 1.0 | 2.0 | 0.00 | 0.13 | 0.13 | 76 | 1012.8 |
| 20260510165231 | 58 | 34 | 1.0 | 2.0 | 0.00 | 0.13 | 0.13 | 76 | 1012.9 |
| 20260510164731 | 58 | 34 | 0.0 | 2.0 | 0.00 | 0.13 | 0.13 | 76 | 1012.9 |
| 20260510164231 | 58 | 34 | 0.0 | 0.0 | 0.00 | 0.13 | 0.13 | 76 | 1013.0 |
| 20260510163731 | 58 | 34 | 0.0 | 0.0 | 0.00 | 0.13 | 0.13 | 76 | 1012.9 |
| 20260510163234 | 58 | 34 | 0.0 | 0.0 | 0.00 | 0.13 | 0.13 | 76 | 1013.0 |
| 20260510162732 | 58 | 34 | 0.0 | 1.0 | 0.00 | 0.13 | 0.13 | 76 | 1013.1 |
| 20260510162234 | 58 | 34 | 0.0 | 1.0 | 0.00 | 0.13 | 0.13 | 76 | 1013.2 |
| 20260510161733 | 58 | 34 | 0.0 | 1.0 | 0.00 | 0.13 | 0.13 | 76 | 1013.2 |
| 20260510161231 | 58 | 34 | 0.0 | 1.0 | 0.00 | 0.13 | 0.13 | 76 | 1013.3 |
| 20260510161020 | 58 | 34 | 0.0 | 1.0 | 0.00 | 0.13 | 0.13 | 76 | 1013.3 |
| 20260510160233 | 58 | 34 | 1.0 | 2.0 | 0.00 | 0.13 | 0.13 | 76 | 1013.4 |
| 20260510155734 | 58 | 34 | 0.0 | 2.0 | 0.00 | 0.13 | 0.13 | 76 | 1013.4 |
| 20260510155232 | 58 | 34 | 0.0 | 1.0 | 0.00 | 0.13 | 0.13 | 76 | 1013.4 |
| 20260510154730 | 58 | 34 | 0.0 | 2.0 | 0.00 | 0.13 | 0.13 | 76 | 1013.5 |
| 20260510154232 | 58 | 34 | 1.0 | 2.0 | 0.01 | 0.13 | 0.13 | 76 | 1013.5 |
| 20260510153734 | 58 | 34 | 1.0 | 2.0 | 0.01 | 0.13 | 0.13 | 76 | 1013.6 |
| 20260510153231 | 58 | 34 | 1.0 | 2.0 | 0.01 | 0.13 | 0.13 | 76 | 1013.6 |
| 20260510152731 | 58 | 34 | 1.0 | 2.0 | 0.02 | 0.13 | 0.13 | 76 | 1013.6 |
| 20260510152232 | 58 | 34 | 0.0 | 2.0 | 0.02 | 0.13 | 0.13 | 76 | 1013.6 |
| 20260510151731 | 57 | 34 | 0.0 | 2.0 | 0.02 | 0.13 | 0.13 | 76 | 1013.7 |
| 20260510151534 | 57 | 34 | 0.0 | 2.0 | 0.02 | 0.13 | 0.13 | 76 | 1013.7 |
| 20260510150732 | 57 | 34 | 0.0 | 1.0 | 0.03 | 0.13 | 0.13 | 76 | 1013.7 |
| 20260510150231 | 57 | 34 | 0.0 | 2.0 | 0.03 | 0.13 | 0.13 | 76 | 1013.8 |
| 20260510145737 | 57 | 34 | 1.0 | 2.0 | 0.03 | 0.13 | 0.13 | 76 | 1013.8 |
| 20260510145514 | 57 | 34 | 1.0 | 2.0 | 0.04 | 0.13 | 0.13 | 76 | 1013.8 |
| 20260510144731 | 57 | 34 | 1.0 | 2.0 | 0.05 | 0.13 | 0.12 | 76 | 1013.8 |
| 20260510144231 | 57 | 34 | 1.0 | 2.0 | 0.04 | 0.12 | 0.12 | 76 | 1013.9 |
| 20260510143730 | 57 | 14 | 1.0 | 3.0 | 0.05 | 0.12 | 0.12 | 76 | 1013.9 |
| 20260510143228 | 57 | 8 | 1.0 | 3.0 | 0.06 | 0.12 | 0.12 | 76 | 1013.9 |
| 20260510142950 | 57 | 68 | 1.0 | 2.0 | 0.06 | 0.11 | 0.11 | 75 | 1013.9 |
| 20260510142751 | 57 | 68 | 1.0 | 2.0 | 0.06 | 0.11 | 0.11 | 75 | 1013.9 |
| 20260510142622 | 57 | 68 | 1.0 | 2.0 | 0.06 | 0.11 | 0.11 | 75 | 1014.0 |
| 20260510142411 | 57 | 68 | 1.0 | 2.0 | 0.06 | 0.11 | 0.11 | 75 | 1014.0 |
| 20260510142306 | 57 | 88 | 0.0 | 2.0 | 0.06 | 0.10 | 0.10 | 75 | 1014.0 |
| 20260510141227 | 57 | 88 | 0.0 | 2.0 | 0.06 | 0.10 | 0.09 | 74 | 1014.0 |
| 20260510140732 | 57 | 88 | 1.0 | 3.0 | 0.06 | 0.09 | 0.09 | 73 | 1014.1 |
| 20260510140725 | 57 | 88 | 0.0 | 3.0 | 0.06 | 0.09 | 0.09 | 74 | 1014.1 |
| 20260510140510 | 57 | 88 | 1.0 | 3.0 | 0.06 | 0.09 | 0.09 | 73 | 1014.1 |
| 20260510140238 | 57 | 88 | 1.0 | 3.0 | 0.06 | 0.09 | 0.09 | 73 | 1014.1 |
| 20260510135723 | 57 | 88 | 1.0 | 2.0 | 0.06 | 0.09 | 0.09 | 73 | 1014.3 |
| 20260510135352 | 57 | 88 | 0.0 | 2.0 | 0.06 | 0.09 | 0.09 | 73 | 1014.3 |
| 20260510135258 | 57 | 88 | 0.0 | 2.0 | 0.06 | 0.08 | 0.08 | 73 | 1014.3 |
| 20260510134224 | 57 | 88 | 0.0 | 1.0 | 0.06 | 0.08 | 0.08 | 73 | 1014.4 |
| 20260510133726 | 57 | 88 | 0.0 | 1.0 | 0.05 | 0.07 | 0.07 | 73 | 1014.5 |
| 20260510133223 | 57 | 88 | 0.0 | 2.0 | 0.04 | 0.06 | 0.06 | 73 | 1014.5 |
| 20260510132726 | 57 | 88 | 1.0 | 2.0 | 0.03 | 0.06 | 0.06 | 73 | 1014.5 |
| 20260510132223 | 57 | 88 | 0.0 | 2.0 | 0.03 | 0.06 | 0.06 | 73 | 1014.6 |
| 20260510131723 | 57 | 88 | 0.0 | 2.0 | 0.02 | 0.05 | 0.05 | 73 | 1014.6 |
| 20260510131231 | 57 | 88 | 1.0 | 2.0 | 0.02 | 0.05 | 0.04 | 72 | 1014.6 |
| 20260510130722 | 57 | 88 | 1.0 | 2.0 | 0.02 | 0.04 | 0.04 | 72 | 1014.7 |
| 20260510130226 | 58 | 88 | 1.0 | 2.0 | 0.01 | 0.03 | 0.03 | 72 | 1014.8 |
| 20260510125821 | 58 | 88 | 0.0 | 1.0 | 0.00 | 0.02 | 0.02 | 72 | 1014.7 |
| 20260510125814 | 58 | 88 | 0.0 | 1.0 | 0.00 | 0.02 | 0.02 | 72 | 1014.7 |
| 20260510125754 | 58 | 88 | 0.0 | 2.0 | 0.01 | 0.03 | 0.03 | 72 | 1014.6 |
| 20260510125327 | 58 | 88 | 0.0 | 1.0 | 0.00 | 0.02 | 0.02 | 72 | 1014.7 |
| 20260510125318 | 58 | 88 | 0.0 | 1.0 | 0.00 | 0.02 | 0.02 | 72 | 1014.7 |
| 20260510125301 | 58 | 88 | 0.0 | 1.0 | 0.00 | 0.02 | 0.02 | 72 | 1014.7 |
| 20260510124710 | 58 | 88 | 0.0 | 1.0 | 0.00 | 0.02 | 0.02 | 72 | 1014.7 |
| 20260510124452 | 58 | 88 | 0.0 | 1.0 | 0.00 | 0.02 | 0.02 | 72 | 1014.7 |
| 20260510124234 | 58 | 88 | 0.0 | 1.0 | 0.00 | 0.02 | 0.02 | 72 | 1014.7 |
| 20260510124207 | 58 | 88 | 0.0 | 1.0 | 0.00 | 0.02 | 0.02 | 72 | 1014.7 |
| 20260510123730 | 58 | 88 | 0.0 | 1.0 | 0.00 | 0.02 | 0.02 | 72 | 1014.7 |
| 20260510123224 | 58 | 88 | 0.0 | 1.0 | 0.00 | 0.02 | 0.02 | 71 | 1014.7 |
| 20260510122724 | 58 | 88 | 0.0 | 2.0 | 0.00 | 0.02 | 0.02 | 71 | 1014.8 |
| 20260510122227 | 58 | 88 | 0.0 | 2.0 | 0.00 | 0.02 | 0.02 | 71 | 1014.8 |
| 20260510121723 | 58 | 88 | 1.0 | 4.0 | 0.00 | 0.02 | 0.02 | 70 | 1014.8 |
| 20260510121516 | 58 | 235 | 1.0 | 4.0 | 0.00 | 0.02 | 0.02 | 69 | 1014.8 |
| 20260510120724 | 58 | 235 | 1.0 | 4.0 | 0.00 | 0.02 | 0.02 | 69 | 1014.7 |
| 20260510120227 | 58 | 227 | 1.0 | 3.0 | 0.00 | 0.02 | 0.02 | 69 | 1014.8 |
| 20260510115723 | 58 | 244 | 1.0 | 3.0 | 0.00 | 0.02 | 0.02 | 69 | 1014.9 |
| 20260510115222 | 58 | 285 | 0.0 | 2.0 | 0.00 | 0.02 | 0.02 | 69 | 1014.8 |
| 20260510114724 | 58 | 285 | 1.0 | 3.0 | 0.00 | 0.02 | 0.02 | 69 | 1014.8 |
| 20260510114224 | 58 | 285 | 1.0 | 5.0 | 0.00 | 0.02 | 0.02 | 69 | 1014.8 |
| 20260510113720 | 58 | 283 | 1.0 | 5.0 | 0.00 | 0.02 | 0.02 | 70 | 1014.8 |
| 20260510113220 | 58 | 180 | 0.0 | 3.0 | 0.00 | 0.02 | 0.02 | 70 | 1014.8 |
| 20260510112719 | 58 | 180 | 0.0 | 3.0 | 0.00 | 0.02 | 0.02 | 71 | 1014.8 |
| 20260510112216 | 58 | 10 | 0.0 | 1.0 | 0.00 | 0.02 | 0.02 | 71 | 1014.8 |
| 20260510111719 | 58 | 10 | 0.0 | 2.0 | 0.00 | 0.02 | 0.02 | 71 | 1014.9 |
| 20260510111213 | 58 | 10 | 1.0 | 2.0 | 0.00 | 0.02 | 0.02 | 71 | 1014.9 |
| 20260510110712 | 58 | 10 | 1.0 | 4.0 | 0.00 | 0.02 | 0.02 | 71 | 1014.9 |
| 20260510110206 | 58 | 10 | 1.0 | 4.0 | 0.00 | 0.02 | 0.02 | 72 | 1014.9 |
| 20260510105707 | 58 | 30 | 1.0 | 3.0 | 0.00 | 0.02 | 0.02 | 72 | 1015.0 |
| 20260510105205 | 58 | 30 | 1.0 | 3.0 | 0.00 | 0.02 | 0.02 | 72 | 1015.0 |
| 20260510104705 | 58 | 37 | 0.0 | 2.0 | 0.00 | 0.02 | 0.02 | 72 | 1015.1 |
| 20260510104204 | 57 | 38 | 1.0 | 2.0 | 0.01 | 0.02 | 0.02 | 73 | 1015.2 |
| 20260510103705 | 57 | 38 | 1.0 | 2.0 | 0.01 | 0.02 | 0.02 | 72 | 1015.2 |
| 20260510103445 | 57 | 38 | 1.0 | 4.0 | 0.01 | 0.02 | 0.02 | 72 | 1015.3 |
| 20260510102748 | 57 | 310 | 1.0 | 4.0 | 0.01 | 0.02 | 0.02 | 72 | 1015.2 |
| 20260510102736 | 57 | 48 | 1.0 | 4.0 | 0.01 | 0.02 | 0.02 | 73 | 1015.3 |
| 20260510101703 | 57 | 162 | 0.0 | 2.0 | 0.01 | 0.02 | 0.02 | 73 | 1015.3 |
| 20260510101203 | 57 | 162 | 1.0 | 2.0 | 0.01 | 0.02 | 0.02 | 73 | 1015.3 |
| 20260510100705 | 57 | 162 | 1.0 | 3.0 | 0.01 | 0.02 | 0.02 | 73 | 1015.2 |
| 20260510100203 | 57 | 154 | 1.0 | 3.0 | 0.01 | 0.02 | 0.02 | 73 | 1015.3 |
| 20260510095705 | 57 | 86 | 1.0 | 3.0 | 0.01 | 0.02 | 0.02 | 73 | 1015.3 |
| 20260510095156 | 57 | 87 | 1.0 | 2.0 | 0.02 | 0.02 | 0.02 | 73 | 1015.3 |
| 20260510094646 | 57 | 87 | 1.0 | 2.0 | 0.02 | 0.02 | 0.02 | 73 | 1015.4 |
| 20260510094137 | 56 | 87 | 1.0 | 3.0 | 0.01 | 0.02 | 0.02 | 73 | 1015.4 |
| 20260510093639 | 57 | 87 | 1.0 | 4.0 | 0.02 | 0.02 | 0.02 | 73 | 1015.4 |
| 20260510093135 | 57 | 98 | 2.0 | 4.0 | 0.02 | 0.02 | 0.02 | 73 | 1015.4 |
| 20260510092634 | 57 | 115 | 2.0 | 3.0 | 0.02 | 0.02 | 0.02 | 73 | 1015.3 |
| 20260510092134 | 58 | 141 | 1.0 | 3.0 | 0.02 | 0.02 | 0.02 | 73 | 1015.3 |
| 20260510091633 | 58 | 141 | 0.0 | 2.0 | 0.02 | 0.02 | 0.02 | 73 | 1015.3 |
| 20260510091131 | 58 | 141 | 0.0 | 3.0 | 0.02 | 0.02 | 0.02 | 73 | 1015.3 |
| 20260510090640 | 58 | 141 | 1.0 | 3.0 | 0.02 | 0.02 | 0.02 | 73 | 1015.3 |
| 20260510090134 | 58 | 141 | 0.0 | 2.0 | 0.02 | 0.02 | 0.02 | 73 | 1015.3 |
| 20260510085912 | 58 | 141 | 0.0 | 2.0 | 0.02 | 0.02 | 0.01 | 73 | 1015.3 |
| 20260510085131 | 58 | 141 | 0.0 | 2.0 | 0.01 | 0.01 | 0.01 | 73 | 1015.3 |
| 20260510084631 | 58 | 141 | 0.0 | 3.0 | 0.01 | 0.01 | 0.01 | 73 | 1015.4 |
| 20260510084131 | 58 | 141 | 1.0 | 4.0 | 0.01 | 0.01 | 0.01 | 73 | 1015.4 |
| 20260510083631 | 59 | 141 | 1.0 | 4.0 | 0.00 | 0.00 | 0.00 | 73 | 1015.3 |
| 20260510083128 | 59 | 15 | 0.0 | 1.0 | 0.00 | 0.00 | 0.00 | 73 | 1015.2 |
| 20260510082621 | 59 | 15 | 0.0 | 0.0 | 0.00 | 0.00 | 0.00 | 72 | 1015.1 |
| 20260510082117 | 59 | 15 | 0.0 | 0.0 | 0.00 | 0.00 | 0.00 | 73 | 1015.1 |
| 20260510081612 | 59 | 15 | 0.0 | 1.0 | 0.00 | 0.00 | 0.00 | 73 | 1015.1 |
| 20260510081110 | 59 | 15 | 1.0 | 3.0 | 0.00 | 0.00 | 0.00 | 73 | 1015.1 |
| 20260510080620 | 59 | 15 | 1.0 | 3.0 | 0.00 | 0.00 | 0.00 | 73 | 1015.1 |
| 20260510080117 | 59 | 218 | 0.0 | 1.0 | 0.00 | 0.00 | 0.00 | 74 | 1015.1 |
| 20260510075608 | 59 | 217 | 0.0 | 1.0 | 0.00 | 0.00 | 0.00 | 74 | 1015.1 |
| 20260510075106 | 59 | 217 | 0.0 | 2.0 | 0.00 | 0.00 | 0.00 | 74 | 1015.0 |
| 20260510074608 | 59 | 217 | 0.0 | 2.0 | 0.00 | 0.00 | 0.00 | 74 | 1015.1 |
| 20260510074352 | 59 | 217 | 0.0 | 2.0 | 0.00 | 0.00 | 0.00 | 74 | 1015.0 |
| 20260510073604 | 59 | 232 | 0.0 | 2.0 | 0.00 | 0.00 | 0.00 | 74 | 1015.1 |
| 20260510073104 | 59 | 232 | 0.0 | 2.0 | 0.00 | 0.00 | 0.00 | 75 | 1015.0 |
| 20260510072604 | 59 | 231 | 1.0 | 3.0 | 0.00 | 0.00 | 0.00 | 75 | 1014.9 |
| 20260510072106 | 59 | 231 | 1.0 | 3.0 | 0.00 | 0.00 | 0.00 | 75 | 1015.0 |
| 20260510071603 | 59 | 308 | 1.0 | 2.0 | 0.00 | 0.00 | 0.00 | 75 | 1014.9 |
| 20260510071100 | 59 | 305 | 1.0 | 3.0 | 0.00 | 0.00 | 0.00 | 76 | 1014.9 |
| 20260510070602 | 59 | 305 | 1.0 | 4.0 | 0.00 | 0.00 | 0.00 | 76 | 1014.9 |
| 20260510070100 | 59 | 305 | 1.0 | 7.0 | 0.00 | 0.00 | 0.00 | 77 | 1014.8 |
| 20260510065550 | 59 | 264 | 1.0 | 7.0 | 0.00 | 0.00 | 0.00 | 77 | 1014.8 |
| 20260510065044 | 59 | 211 | 1.0 | 4.0 | 0.00 | 0.00 | 0.00 | 76 | 1014.8 |
| 20260510064622 | 59 | 132 | 1.0 | 4.0 | 0.00 | 0.00 | 0.00 | 75 | 1014.8 |
| 20260510064600 | 59 | 241 | 1.0 | 4.0 | 0.00 | 0.00 | 0.00 | 76 | 1014.7 |
| 20260510063538 | 60 | 202 | 2.0 | 4.0 | 0.00 | 0.00 | 0.00 | 75 | 1014.8 |
| 20260510063039 | 60 | 287 | 2.0 | 7.0 | 0.00 | 0.00 | 0.00 | 75 | 1014.8 |
| 20260510062537 | 60 | 285 | 2.0 | 7.0 | 0.00 | 0.00 | 0.00 | 74 | 1014.7 |
| 20260510062036 | 59 | 300 | 2.0 | 3.0 | 0.00 | 0.00 | 0.00 | 75 | 1014.7 |
| 20260510061537 | 59 | 300 | 1.0 | 2.0 | 0.00 | 0.00 | 0.00 | 75 | 1014.7 |
| 20260510061036 | 59 | 300 | 1.0 | 2.0 | 0.00 | 0.00 | 0.00 | 76 | 1014.6 |
| 20260510060534 | 59 | 300 | 1.0 | 2.0 | 0.00 | 0.00 | 0.00 | 76 | 1014.5 |
| 20260510060317 | 60 | 300 | 0.0 | 2.0 | 0.00 | 0.00 | 0.00 | 76 | 1014.5 |
| 20260510055533 | 60 | 300 | 0.0 | 2.0 | 0.00 | 0.00 | 0.00 | 76 | 1014.5 |
| 20260510055034 | 60 | 300 | 0.0 | 1.0 | 0.00 | 0.00 | 0.00 | 76 | 1014.5 |
| 20260510054559 | 60 | 300 | 0.0 | 1.0 | 0.00 | 0.00 | 0.00 | 77 | 1014.5 |
| 20260510054549 | 60 | 300 | 0.0 | 1.0 | 0.00 | 0.00 | 0.00 | 77 | 1014.5 |
| 20260510053533 | 60 | 300 | 0.0 | 1.0 | 0.00 | 0.00 | 0.00 | 76 | 1014.7 |
| 20260510053032 | 59 | 300 | 0.0 | 1.0 | 0.00 | 0.00 | 0.00 | 76 | 1014.6 |
| 20260510052531 | 59 | 300 | 0.0 | 1.0 | 0.00 | 0.00 | 0.00 | 76 | 1014.8 |
| 20260510052314 | 59 | 300 | 1.0 | 2.0 | 0.00 | 0.00 | 0.00 | 76 | 1014.7 |
| 20260510051528 | 59 | 300 | 1.0 | 2.0 | 0.00 | 0.00 | 0.00 | 75 | 1014.7 |
| 20260510051302 | 59 | 300 | 1.0 | 2.0 | 0.00 | 0.00 | 0.00 | 76 | 1014.6 |
| 20260510050524 | 59 | 300 | 1.0 | 2.0 | 0.00 | 0.00 | 0.00 | 75 | 1014.6 |
| 20260510050346 | 59 | 300 | 1.0 | 2.0 | 0.00 | 0.00 | 0.00 | 75 | 1014.6 |
| 20260510045519 | 59 | 300 | 1.0 | 2.0 | 0.00 | 0.00 | 0.00 | 75 | 1014.5 |
| 20260510045252 | 59 | 300 | 1.0 | 2.0 | 0.00 | 0.00 | 0.00 | 75 | 1014.5 |
| 20260510044519 | 59 | 300 | 1.0 | 2.0 | 0.00 | 0.00 | 0.00 | 75 | 1014.5 |
| 20260510044047 | 60 | 300 | 1.0 | 3.0 | 0.00 | 0.00 | 0.00 | 75 | 1014.6 |
| 20260510044035 | 59 | 300 | 0.0 | 2.0 | 0.00 | 0.00 | 0.00 | 75 | 1014.6 |
| 20260510043018 | 60 | 300 | 2.0 | 4.0 | 0.00 | 0.00 | 0.00 | 74 | 1014.5 |
| 20260510042816 | 60 | 300 | 2.0 | 4.0 | 0.00 | 0.00 | 0.00 | 74 | 1014.5 |
| 20260510042013 | 59 | 280 | 2.0 | 4.0 | 0.00 | 0.00 | 0.00 | 74 | 1014.5 |
| 20260510041546 | 59 | 4 | 2.0 | 3.0 | 0.00 | 0.00 | 0.00 | 76 | 1014.4 |
| 20260510041538 | 59 | 309 | 2.0 | 3.0 | 0.00 | 0.00 | 0.00 | 75 | 1014.4 |
| 20260510040513 | 59 | 354 | 2.0 | 3.0 | 0.00 | 0.00 | 0.00 | 76 | 1014.3 |
| 20260510040013 | 59 | 354 | 2.0 | 3.0 | 0.00 | 0.00 | 0.00 | 76 | 1014.4 |
| 20260510035810 | 59 | 354 | 2.0 | 3.0 | 0.00 | 0.00 | 0.00 | 77 | 1014.1 |
| 20260510035011 | 59 | 359 | 2.0 | 3.0 | 0.00 | 0.00 | 0.00 | 77 | 1014.1 |
| 20260510034507 | 59 | 354 | 2.0 | 4.0 | 0.00 | 0.00 | 0.00 | 77 | 1014.3 |
| 20260510034008 | 59 | 10 | 2.0 | 4.0 | 0.00 | 0.00 | 0.00 | 77 | 1014.3 |
| 20260510033756 | 59 | 354 | 2.0 | 3.0 | 0.00 | 0.00 | 0.00 | 76 | 1014.3 |
| 20260510033008 | 60 | 336 | 1.0 | 3.0 | 0.00 | 0.00 | 0.00 | 76 | 1014.4 |
| 20260510032517 | 60 | 350 | 1.0 | 2.0 | 0.00 | 0.00 | 0.00 | 75 | 1014.4 |
| 20260510032007 | 60 | 350 | 1.0 | 2.0 | 0.00 | 0.00 | 0.00 | 74 | 1014.5 |
| 20260510031507 | 60 | 350 | 1.0 | 2.0 | 0.00 | 0.00 | 0.00 | 74 | 1014.6 |
| 20260510031128 | 60 | 350 | 1.0 | 2.0 | 0.00 | 0.00 | 0.00 | 73 | 1014.7 |
| 20260510031103 | 60 | 350 | 1.0 | 2.0 | 0.00 | 0.00 | 0.00 | 73 | 1014.6 |
| 20260510030826 | 60 | 350 | 1.0 | 2.0 | 0.00 | 0.00 | 0.00 | 73 | 1014.7 |
| 20260510025505 | 60 | 350 | 1.0 | 2.0 | 0.00 | 0.00 | 0.00 | 73 | 1014.7 |
| 20260510025005 | 60 | 354 | 1.0 | 3.0 | 0.00 | 0.00 | 0.00 | 73 | 1014.8 |
| 20260510024506 | 60 | 354 | 1.0 | 3.0 | 0.00 | 0.00 | 0.00 | 73 | 1014.8 |
| 20260510024008 | 60 | 354 | 1.0 | 2.0 | 0.00 | 0.00 | 0.00 | 73 | 1014.8 |
| 20260510023508 | 60 | 354 | 1.0 | 2.0 | 0.00 | 0.00 | 0.00 | 73 | 1014.8 |
| 20260510023329 | 60 | 354 | 1.0 | 3.0 | 0.00 | 0.00 | 0.00 | 72 | 1014.8 |
| 20260510023325 | 60 | 354 | 2.0 | 3.0 | 0.00 | 0.00 | 0.00 | 73 | 1014.8 |
| 20260510022003 | 60 | 294 | 1.0 | 3.0 | 0.00 | 0.00 | 0.00 | 71 | 1014.9 |
| 20260510021503 | 60 | 294 | 0.0 | 2.0 | 0.00 | 0.00 | 0.00 | 72 | 1015.0 |
| 20260510021003 | 60 | 294 | 0.0 | 2.0 | 0.00 | 0.00 | 0.00 | 71 | 1015.0 |
| 20260510020503 | 60 | 294 | 1.0 | 2.0 | 0.00 | 0.00 | 0.00 | 72 | 1014.9 |
| 20260510020000 | 60 | 294 | 1.0 | 3.0 | 0.00 | 0.00 | 0.00 | 71 | 1015.0 |
| 20260510015500 | 60 | 294 | 2.0 | 4.0 | 0.00 | 0.00 | 0.00 | 71 | 1014.9 |
| 20260510014954 | 60 | 285 | 1.0 | 4.0 | 0.00 | 0.00 | 0.00 | 71 | 1014.9 |
| 20260510014452 | 60 | 280 | 1.0 | 2.0 | 0.00 | 0.00 | 0.00 | 72 | 1014.8 |
| 20260510014233 | 60 | 280 | 2.0 | 3.0 | 0.00 | 0.00 | 0.00 | 72 | 1014.8 |
| 20260510013449 | 60 | 280 | 1.0 | 3.0 | 0.00 | 0.00 | 0.00 | 71 | 1014.8 |
| 20260510012952 | 61 | 280 | 1.0 | 3.0 | 0.00 | 0.00 | 0.00 | 70 | 1014.7 |
| 20260510012452 | 61 | 264 | 1.0 | 3.0 | 0.00 | 0.00 | 0.00 | 70 | 1014.8 |
| 20260510011950 | 61 | 13 | 1.0 | 4.0 | 0.00 | 0.00 | 0.00 | 69 | 1014.8 |
| 20260510011448 | 61 | 238 | 1.0 | 4.0 | 0.00 | 0.00 | 0.00 | 69 | 1014.8 |
| 20260510010949 | 61 | 21 | 1.0 | 4.0 | 0.00 | 0.00 | 0.00 | 69 | 1014.9 |
| 20260510010448 | 61 | 239 | 1.0 | 4.0 | 0.00 | 0.00 | 0.00 | 69 | 1015.0 |
| 20260510005947 | 61 | 345 | 1.0 | 4.0 | 0.00 | 0.00 | 0.00 | 69 | 1015.1 |
| 20260510005454 | 60 | 27 | 1.0 | 4.0 | 0.00 | 0.00 | 0.00 | 70 | 1015.2 |
| 20260510004949 | 60 | 40 | 1.0 | 4.0 | 0.00 | 0.00 | 0.00 | 71 | 1015.4 |
| 20260510004447 | 60 | 40 | 1.0 | 4.0 | 0.00 | 0.00 | 0.00 | 71 | 1015.5 |
| 20260510003945 | 60 | 314 | 1.0 | 2.0 | 0.00 | 0.00 | 0.00 | 71 | 1015.7 |
| 20260510003441 | 61 | 313 | 1.0 | 2.0 | 0.00 | 0.00 | 0.00 | 71 | 1015.8 |
| 20260510002941 | 61 | 313 | 1.0 | 2.0 | 0.00 | 0.00 | 0.00 | 70 | 1015.9 |
| 20260510002459 | 61 | 307 | 1.0 | 2.0 | 0.00 | 0.00 | 0.00 | 70 | 1016.0 |
| 20260510001940 | 61 | 307 | 1.0 | 2.0 | 0.00 | 0.00 | 0.00 | 69 | 1016.0 |
| 20260510001438 | 62 | 307 | 1.0 | 3.0 | 0.00 | 0.00 | 0.00 | 68 | 1016.1 |
| 20260510000937 | 62 | 307 | 2.0 | 3.0 | 0.00 | 0.00 | 0.00 | 68 | 1016.1 |
| 20260510000440 | 62 | 296 | 2.0 | 8.0 | 0.00 | 0.00 | 0.00 | 67 | 1016.2 |
| 20260509235935 | 62 | 297 | 3.0 | 8.0 | 0.00 | 0.00 | 0.00 | 66 | 1016.3 |
| 20260509235437 | 61 | 246 | 2.0 | 7.0 | 0.00 | 0.00 | 0.00 | 67 | 1016.4 |
| 20260509234940 | 61 | 216 | 1.0 | 5.0 | 0.00 | 0.00 | 0.00 | 68 | 1016.5 |
| 20260509234438 | 61 | 291 | 2.0 | 3.0 | 0.00 | 0.00 | 0.00 | 69 | 1016.4 |
| 20260509233935 | 61 | 291 | 1.0 | 3.0 | 0.00 | 0.00 | 0.00 | 68 | 1016.3 |
| 20260509233436 | 61 | 290 | 1.0 | 3.0 | 0.00 | 0.00 | 0.00 | 69 | 1016.4 |
| 20260509232935 | 61 | 320 | 1.0 | 2.0 | 0.00 | 0.00 | 0.00 | 70 | 1016.4 |
| 20260509232436 | 61 | 320 | 1.0 | 2.0 | 0.00 | 0.00 | 0.00 | 70 | 1016.4 |
| 20260509232224 | 61 | 320 | 1.0 | 3.0 | 0.00 | 0.00 | 0.00 | 70 | 1016.4 |
| 20260509231436 | 61 | 320 | 2.0 | 4.0 | 0.00 | 0.00 | 0.00 | 70 | 1016.4 |
| 20260509230935 | 61 | 320 | 2.0 | 4.0 | 0.00 | 0.00 | 0.00 | 68 | 1016.4 |
| 20260509230448 | 61 | 280 | 2.0 | 6.0 | 0.00 | 0.00 | 0.00 | 69 | 1016.3 |
| 20260509230220 | 61 | 278 | 2.0 | 6.0 | 0.00 | 0.00 | 0.00 | 68 | 1016.3 |
| 20260509225438 | 61 | 325 | 2.0 | 3.0 | 0.00 | 0.00 | 0.00 | 69 | 1016.2 |
| 20260509224935 | 61 | 305 | 2.0 | 3.0 | 0.00 | 0.00 | 0.00 | 70 | 1016.1 |
| 20260509224434 | 61 | 302 | 2.0 | 3.0 | 0.00 | 0.00 | 0.00 | 70 | 1016.0 |
| 20260509223934 | 61 | 301 | 2.0 | 4.0 | 0.00 | 0.00 | 0.00 | 69 | 1015.9 |
| 20260509223432 | 61 | 354 | 2.0 | 4.0 | 0.00 | 0.00 | 0.00 | 69 | 1015.9 |
| 20260509222932 | 61 | 293 | 2.0 | 4.0 | 0.00 | 0.00 | 0.00 | 70 | 1015.8 |
| 20260509222433 | 61 | 276 | 2.0 | 3.0 | 0.00 | 0.00 | 0.00 | 69 | 1015.8 |
| 20260509221933 | 61 | 8 | 2.0 | 3.0 | 0.00 | 0.00 | 0.00 | 70 | 1015.8 |
| 20260509221434 | 61 | 317 | 1.0 | 3.0 | 0.00 | 0.00 | 0.00 | 70 | 1015.9 |
| 20260509220934 | 61 | 44 | 1.0 | 4.0 | 0.00 | 0.00 | 0.00 | 70 | 1015.8 |